COSMOS 886 DEB

Satellite information

Favourite Embed

Satellite Type and Status

DEBRISIN ORBIT

Key statistics

Satellite COSMOS 886 DEB at a glance.

Uptime

17784

Days in orbit

Revolutions

≈ 12.5

Per day

Orbit

MEO

Medium Earth Orbit

Inclination

65.8

Latest

Satellite identification and parameters

Extended collection of information and parameters for COSMOS 886 DEB.

Object identification

Identified? True

Debris? True

Object name: COSMOS 886 DEB

International designator: 1976-126BT

Object number (NORAD): 15555

Object ID (CCSDS): 15555

Country: COMMONWEALTH OF INDEPENDENT STATES (CIS)

Current information (Y/N): Y

RCS size: SMALL

Orbital parameters

Period: 114.904 minutes

Inclination: 65.7821 deg

SMA: 7829.191 km

Apoapsis: 2208.001 km

Periapsis: 694.111 km

RAAN: 260.5606 deg

Eccentricy: 0.09668246

Argument of periapsis: 292.3817 deg

Mean anomaly: 57.7575 deg

Mean motion: 12.53220327 rev/day

Mean motion (dot): 0.00000977 rev/day2

B* drag term: 0.001093491 1/REarth

Two-line elements (TLE)

Creation date: Sept. 3, 2025, 10:15 a.m.

Reference frame: TEME

Reference center: EARTH

Epoch: Sept. 3, 2025, 1:20 a.m. UTC

TLE line 0: 0 COSMOS 886 DEB

TLE line 1: 1 15555U 76126BT 25246.05608060 .00000977 00000-0 10935-2 0 9990

TLE line 2: 2 15555 65.7821 260.5606 0966825 292.3817 57.7575 12.53220327530837

Live tracking on map

Real-time ground track for satellite COSMOS 886 DEB.

In-orbit conjunctions

A list of the most updated potential collisions computed for object COSMOS 886 DEB.

Target Orbit TCA Probability of collision Miss distance Type
DELTA 1 DEB SSO 2025-04-01 06:02:34 0.0001267673 147.0 (m) DEBRIS
FENGYUN 1C DEB SSO 2025-03-12 16:32:23 0.0001381111 87.0 (m) DEBRIS

Associated space launch

Second generation ASAT satellite

COSMOS 886 DEB was lifted into orbit during the mission ‘Tsiklon-2 | IS-A 4’, on board a Tsiklon-2 space rocket.

The launch took place on Dec. 27, 1976, 12:05 p.m. from 90.

For more information about the launch, click the button.

Launch to space Tsiklon-2 | IS-A 4
Tsiklon-2 | IS-A 4

Agency: N/A

Status: Launch Successful

Launch date: Dec. 27, 1976, 12:05 p.m. UTC

Rocket: Tsiklon-2

Launch pad: 90

Location: Baikonur Cosmodrome, Republic of Kazakhstan

...

Latest news about this satellite

There are no fresh news available about this satellite. Check back as we update our databases every day.


Newsletter sign-up

Weekly statistics, charts and insights to help you stay on top of the space industry.